Time,TemperatureF,DewpointF,PressureIn,WindDirection,WindDirectionDegrees,WindSpeedMPH,WindSpeedGustMPH,Humidity,HourlyPrecipIn,Conditions,Clouds,dailyrainin,SolarRadiationWatts/m^2,SoftwareType,DateUTC
2013-05-21 00:11:00,44.0,30.0,-100.00,NE,53,0.0,2.0,58,-99.99,,,0.00,0.000000,,2013-05-21 07:11:00,
2013-05-21 00:21:00,44.0,30.0,-100.00,NE,53,0.0,2.0,58,-99.99,,,0.00,0.000000,,2013-05-21 07:21:00,
2013-05-21 02:11:00,43.0,36.0,-100.00,NE,50,0.0,0.0,75,-99.99,,,0.00,0.000000,,2013-05-21 09:11:00,
2013-05-21 03:12:00,42.0,35.0,-100.00,NE,54,0.0,0.0,76,-99.99,,,0.00,0.000000,,2013-05-21 10:12:00,
2013-05-21 04:21:00,41.0,35.0,-100.00,NE,37,0.0,0.0,78,-99.99,,,0.00,0.000000,,2013-05-21 11:21:00,
2013-05-21 05:21:00,40.0,34.0,-100.00,NE,51,0.0,0.0,79,-99.99,,,0.00,0.000000,,2013-05-21 12:21:00,
2013-05-21 06:12:00,40.0,35.0,-100.00,NE,46,0.0,0.0,81,-99.99,,,0.00,1.000000,,2013-05-21 13:12:00,
2013-05-21 07:11:00,42.0,37.0,-100.00,NE,47,0.0,0.0,81,-99.99,,,0.00,15.000000,,2013-05-21 14:11:00,
2013-05-21 08:11:00,57.0,47.0,-100.00,NE,47,0.0,0.0,68,-99.99,,,0.00,66.000000,,2013-05-21 15:11:00,
2013-05-21 08:52:00,70.0,36.0,-100.00,NW,312,3.0,7.0,29,0.00,,,0.00,357.000000,,2013-05-21 15:52:00,
2013-05-21 09:23:00,70.0,36.0,-100.00,NW,312,3.0,7.0,29,0.00,,,0.00,357.000000,,2013-05-21 16:23:00,
2013-05-21 09:32:00,70.0,36.0,-100.00,NW,312,3.0,7.0,29,0.00,,,0.00,357.000000,,2013-05-21 16:32:00,
2013-05-21 09:42:00,70.0,36.0,-100.00,NW,312,3.0,7.0,29,0.00,,,0.00,357.000000,,2013-05-21 16:42:00,
2013-05-21 09:52:00,72.0,33.0,-100.00,West,280,3.0,8.0,24,0.00,,,0.00,683.000000,,2013-05-21 16:52:00,
2013-05-21 10:12:00,72.0,33.0,-100.00,West,280,3.0,8.0,24,0.00,,,0.00,683.000000,,2013-05-21 17:12:00,
2013-05-21 10:23:00,72.0,33.0,-100.00,West,280,3.0,8.0,24,0.00,,,0.00,683.000000,,2013-05-21 17:23:00,
2013-05-21 10:32:00,72.0,33.0,-100.00,West,280,3.0,8.0,24,0.00,,,0.00,683.000000,,2013-05-21 17:32:00,
2013-05-21 10:43:00,72.0,33.0,-100.00,West,280,3.0,8.0,24,0.00,,,0.00,683.000000,,2013-05-21 17:43:00,
2013-05-21 11:12:00,74.0,32.0,-100.00,West,272,3.0,9.0,21,0.00,,,0.00,878.000000,,2013-05-21 18:12:00,
2013-05-21 11:22:00,74.0,32.0,-100.00,West,272,3.0,9.0,21,0.00,,,0.00,878.000000,,2013-05-21 18:22:00,
2013-05-21 11:32:00,74.0,32.0,-100.00,West,272,3.0,9.0,21,0.00,,,0.00,878.000000,,2013-05-21 18:32:00,
2013-05-21 11:42:00,74.0,32.0,-100.00,West,272,3.0,9.0,21,0.00,,,0.00,878.000000,,2013-05-21 18:42:00,
2013-05-21 11:51:00,74.0,32.0,-100.00,West,272,3.0,9.0,21,0.00,,,0.00,878.000000,,2013-05-21 18:51:00,
2013-05-21 11:52:00,76.0,32.0,-100.00,WNW,290,3.0,11.0,20,0.00,,,0.00,1014.000000,,2013-05-21 18:52:00,
2013-05-21 12:11:00,76.0,32.0,-100.00,WNW,290,3.0,11.0,20,0.00,,,0.00,1014.000000,,2013-05-21 19:11:00,
2013-05-21 12:21:00,76.0,32.0,-100.00,WNW,290,3.0,11.0,20,0.00,,,0.00,1014.000000,,2013-05-21 19:21:00,
2013-05-21 12:31:00,76.0,32.0,-100.00,WNW,290,3.0,11.0,20,0.00,,,0.00,1014.000000,,2013-05-21 19:31:00,
2013-05-21 12:41:00,76.0,32.0,-100.00,WNW,290,3.0,11.0,20,0.00,,,0.00,1014.000000,,2013-05-21 19:41:00,
2013-05-21 12:52:00,75.0,37.0,-100.00,SW,214,6.0,14.0,25,0.00,,,0.00,1065.000000,,2013-05-21 19:52:00,
2013-05-21 13:11:00,75.0,37.0,-100.00,SW,214,6.0,14.0,25,0.00,,,0.00,1065.000000,,2013-05-21 20:11:00,
2013-05-21 13:22:00,75.0,37.0,-100.00,SW,214,6.0,14.0,25,0.00,,,0.00,1065.000000,,2013-05-21 20:22:00,
2013-05-21 13:32:00,75.0,37.0,-100.00,SW,214,6.0,14.0,25,0.00,,,0.00,1065.000000,,2013-05-21 20:32:00,
2013-05-21 13:42:00,75.0,37.0,-100.00,SW,214,6.0,14.0,25,0.00,,,0.00,1065.000000,,2013-05-21 20:42:00,
2013-05-21 13:52:00,74.0,39.0,-100.00,SW,228,5.0,15.0,28,0.00,,,0.00,1030.000000,,2013-05-21 20:52:00,
2013-05-21 14:11:00,74.0,39.0,-100.00,SW,228,5.0,15.0,28,0.00,,,0.00,1030.000000,,2013-05-21 21:11:00,
2013-05-21 14:21:00,74.0,39.0,-100.00,SW,228,5.0,15.0,28,0.00,,,0.00,1030.000000,,2013-05-21 21:21:00,
2013-05-21 14:32:00,74.0,39.0,-100.00,SW,228,5.0,15.0,28,0.00,,,0.00,1030.000000,,2013-05-21 21:32:00,
2013-05-21 14:43:00,74.0,39.0,-100.00,SW,228,5.0,15.0,28,0.00,,,0.00,1030.000000,,2013-05-21 21:43:00,
2013-05-21 14:52:00,73.0,44.0,-100.00,SW,225,6.0,14.0,36,0.00,,,0.00,945.000000,,2013-05-21 21:52:00,
2013-05-21 15:12:00,73.0,44.0,-100.00,SW,225,6.0,14.0,36,0.00,,,0.00,945.000000,,2013-05-21 22:12:00,
2013-05-21 15:22:00,73.0,44.0,-100.00,SW,225,6.0,14.0,36,0.00,,,0.00,945.000000,,2013-05-21 22:22:00,
2013-05-21 15:33:00,73.0,44.0,-100.00,SW,225,6.0,14.0,36,0.00,,,0.00,945.000000,,2013-05-21 22:33:00,
2013-05-21 15:41:00,73.0,44.0,-100.00,SW,225,6.0,14.0,36,0.00,,,0.00,945.000000,,2013-05-21 22:41:00,
2013-05-21 15:52:00,71.0,40.0,-100.00,WSW,242,5.0,19.0,33,0.00,,,0.00,751.000000,,2013-05-21 22:52:00,
2013-05-21 16:12:00,71.0,40.0,-100.00,WSW,242,5.0,19.0,33,0.00,,,0.00,751.000000,,2013-05-21 23:12:00,
2013-05-21 16:22:00,71.0,40.0,-100.00,WSW,242,5.0,19.0,33,0.00,,,0.00,751.000000,,2013-05-21 23:22:00,
2013-05-21 16:32:00,71.0,40.0,-100.00,WSW,242,5.0,19.0,33,0.00,,,0.00,751.000000,,2013-05-21 23:32:00,
2013-05-21 16:42:00,71.0,40.0,-100.00,WSW,242,5.0,19.0,33,0.00,,,0.00,751.000000,,2013-05-21 23:42:00,
2013-05-21 17:11:00,68.0,34.0,-100.00,SW,217,6.0,15.0,28,0.00,,,0.00,649.000000,,2013-05-22 00:11:00,
2013-05-21 17:21:00,68.0,34.0,-100.00,SW,217,6.0,15.0,28,0.00,,,0.00,649.000000,,2013-05-22 00:21:00,
2013-05-21 17:31:00,68.0,34.0,-100.00,SW,217,6.0,15.0,28,0.00,,,0.00,649.000000,,2013-05-22 00:31:00,
2013-05-21 17:41:00,68.0,34.0,-100.00,SW,217,6.0,15.0,28,0.00,,,0.00,649.000000,,2013-05-22 00:41:00,
2013-05-21 17:51:00,68.0,34.0,-100.00,SW,217,6.0,15.0,28,0.00,,,0.00,649.000000,,2013-05-22 00:51:00,
2013-05-21 17:52:00,66.0,37.0,-100.00,SW,223,5.0,15.0,34,0.00,,,0.00,477.000000,,2013-05-22 00:52:00,
2013-05-21 18:11:00,66.0,37.0,-100.00,SW,223,5.0,15.0,34,0.00,,,0.00,477.000000,,2013-05-22 01:11:00,
2013-05-21 18:21:00,66.0,37.0,-100.00,SW,223,5.0,15.0,34,0.00,,,0.00,477.000000,,2013-05-22 01:21:00,
2013-05-21 18:32:00,66.0,37.0,-100.00,SW,223,5.0,15.0,34,0.00,,,0.00,477.000000,,2013-05-22 01:32:00,
2013-05-21 18:41:00,66.0,37.0,-100.00,SW,223,5.0,15.0,34,0.00,,,0.00,477.000000,,2013-05-22 01:41:00,
2013-05-21 19:11:00,63.0,39.0,-100.00,SSW,195,4.0,10.0,41,0.00,,,0.00,137.000000,,2013-05-22 02:11:00,
2013-05-21 19:21:00,63.0,39.0,-100.00,SSW,195,4.0,10.0,41,0.00,,,0.00,137.000000,,2013-05-22 02:21:00,
2013-05-21 19:32:00,63.0,39.0,-100.00,SSW,195,4.0,10.0,41,0.00,,,0.00,137.000000,,2013-05-22 02:32:00,
2013-05-21 19:41:00,63.0,39.0,-100.00,SSW,195,4.0,10.0,41,0.00,,,0.00,137.000000,,2013-05-22 02:41:00,
2013-05-21 19:51:00,63.0,39.0,-100.00,SSW,195,4.0,10.0,41,0.00,,,0.00,137.000000,,2013-05-22 02:51:00,
2013-05-21 19:52:00,58.0,43.0,-100.00,South,189,4.0,10.0,58,0.00,,,0.00,14.000000,,2013-05-22 02:52:00,
2013-05-21 20:11:00,58.0,43.0,-100.00,South,189,4.0,10.0,58,0.00,,,0.00,14.000000,,2013-05-22 03:11:00,
2013-05-21 20:21:00,58.0,43.0,-100.00,South,189,4.0,10.0,58,0.00,,,0.00,14.000000,,2013-05-22 03:21:00,
2013-05-21 20:33:00,58.0,43.0,-100.00,South,189,4.0,10.0,58,0.00,,,0.00,14.000000,,2013-05-22 03:33:00,
2013-05-21 20:43:00,58.0,43.0,-100.00,South,189,4.0,10.0,58,0.00,,,0.00,14.000000,,2013-05-22 03:43:00,
2013-05-21 20:52:00,56.0,37.0,-100.00,South,172,4.0,8.0,49,0.00,,,0.00,0.000000,,2013-05-22 03:52:00,
2013-05-21 21:13:00,56.0,37.0,-100.00,South,172,4.0,8.0,49,0.00,,,0.00,0.000000,,2013-05-22 04:13:00,
2013-05-21 21:22:00,56.0,37.0,-100.00,South,172,4.0,8.0,49,0.00,,,0.00,0.000000,,2013-05-22 04:22:00,
2013-05-21 21:33:00,56.0,37.0,-100.00,South,172,4.0,8.0,49,0.00,,,0.00,0.000000,,2013-05-22 04:33:00,
2013-05-21 21:42:00,56.0,37.0,-100.00,South,172,4.0,8.0,49,0.00,,,0.00,0.000000,,2013-05-22 04:42:00,
2013-05-21 22:11:00,55.0,31.0,-100.00,South,181,3.0,6.0,40,0.00,,,0.00,0.000000,,2013-05-22 05:11:00,
2013-05-21 22:21:00,55.0,31.0,-100.00,South,181,3.0,6.0,40,0.00,,,0.00,0.000000,,2013-05-22 05:21:00,
2013-05-21 22:31:00,55.0,31.0,-100.00,South,181,3.0,6.0,40,0.00,,,0.00,0.000000,,2013-05-22 05:31:00,
2013-05-21 22:42:00,55.0,31.0,-100.00,South,181,3.0,6.0,40,0.00,,,0.00,0.000000,,2013-05-22 05:42:00,
2013-05-21 22:51:00,55.0,31.0,-100.00,South,181,3.0,6.0,40,0.00,,,0.00,0.000000,,2013-05-22 05:51:00,
2013-05-21 22:52:00,55.0,28.0,-100.00,SSE,160,3.0,7.0,35,0.00,,,0.00,0.000000,,2013-05-22 05:52:00,
2013-05-21 23:11:00,55.0,28.0,-100.00,SSE,160,3.0,7.0,35,0.00,,,0.00,0.000000,,2013-05-22 06:11:00,
2013-05-21 23:21:00,55.0,28.0,-100.00,SSE,160,3.0,7.0,35,0.00,,,0.00,0.000000,,2013-05-22 06:21:00,
2013-05-21 23:31:00,55.0,28.0,-100.00,SSE,160,3.0,7.0,35,0.00,,,0.00,0.000000,,2013-05-22 06:31:00,
2013-05-21 23:41:00,55.0,28.0,-100.00,SSE,160,3.0,7.0,35,0.00,,,0.00,0.000000,,2013-05-22 06:41:00,
2013-05-21 23:52:00,54.0,28.0,-100.00,South,171,3.0,8.0,36,0.00,,,0.00,0.000000,,2013-05-22 06:52:00,